FW2664 Weather Reports


Display with metric or nautical units.
time (UTC)temp
F
wind
direction
speed
MPH
gust
MPH
rain 1hr
in
rain 24hr
in
rain mn
in
humidity
%
barometer
mb
20260901235443 90 89 0.0 2.0 0.00 0.00 0.00 55 1015.5
20260901234938 90 65 0.0 2.0 0.00 0.00 0.00 54 1015.4
20260901234431 91 71 0.0 2.0 0.00 0.00 0.00 53 1015.6
20260901233926 91 42 0.0 2.0 0.00 0.00 0.00 51 1015.5
20260901233421 92 78 1.0 2.0 0.00 0.00 0.00 49 1015.5
20260901232919 93 343 0.0 2.0 0.00 0.00 0.00 49 1015.5
20260901232418 93 89 0.0 2.0 0.00 0.00 0.00 48 1015.6
20260901231914 93 94 1.0 2.0 0.00 0.00 0.00 46 1015.5
20260901231409 94 77 0.0 2.0 0.00 0.00 0.00 47 1015.7
20260901230906 94 107 0.0 2.0 0.00 0.00 0.00 45 1015.7
20260901230405 94 7 1.0 2.0 0.00 0.00 0.00 46 1015.6
20260901225901 94 101 0.0 2.0 0.00 0.00 0.00 44 1015.5
20260901225401 95 74 1.0 1.0 0.00 0.00 0.00 45 1015.6
20260901224855 95 290 0.0 1.0 0.00 0.00 0.00 45 1015.6
20260901224352 95 82 0.0 1.0 0.00 0.00 0.00 44 1015.8
20260901223848 95 139 0.0 2.0 0.00 0.00 0.00 43 1015.8
20260901223343 96 49 0.0 2.0 0.00 0.00 0.00 44 1015.5
20260901222838 97 115 1.0 2.0 0.00 0.00 0.00 41 1015.5
20260901222335 99 146 3.0 3.0 0.00 0.00 0.00 38 1015.5
20260901221830 102 107 2.0 2.0 0.00 0.00 0.00 37 1015.6
20260901221326 102 203 0.0 2.0 0.00 0.00 0.00 37 1015.6
20260901220825 101 66 0.0 3.0 0.00 0.00 0.00 38 1015.6
20260901220324 99 310 0.0 2.0 0.00 0.00 0.00 38 1015.7
20260901215823 100 249 1.0 2.0 0.00 0.00 0.00 38 1015.8
20260901215323 100 29 0.0 1.0 0.00 0.00 0.00 39 1015.9
20260901214821 100 82 0.0 2.0 0.00 0.00 0.00 40 1015.6
20260901214320 101 39 1.0 2.0 0.00 0.00 0.00 37 1015.9
20260901213815 101 26 1.0 1.0 0.00 0.00 0.00 39 1015.7
20260901213315 100 43 0.0 2.0 0.00 0.00 0.00 39 1015.8
20260901212810 100 281 0.0 2.0 0.00 0.00 0.00 37 1015.9
20260901212306 99 101 0.0 3.0 0.00 0.00 0.00 39 1015.8
20260901211801 99 161 1.0 4.0 0.00 0.00 0.00 38 1015.8
20260901211257 99 304 1.0 3.0 0.00 0.00 0.00 38 1015.8
20260901210753 99 235 2.0 4.0 0.00 0.00 0.00 38 1015.9
20260901210248 98 231 1.0 2.0 0.00 0.00 0.00 39 1015.9
20260901205744 99 268 0.0 2.0 0.00 0.00 0.00 38 1016.0
20260901205244 100 151 0.0 4.0 0.00 0.00 0.00 38 1016.0
20260901204740 100 159 1.0 2.0 0.00 0.00 0.00 38 1016.0
20260901204235 98 277 0.0 3.0 0.00 0.00 0.00 39 1016.1
20260901203730 98 332 2.0 4.0 0.00 0.00 0.00 39 1016.2
20260901203230 100 325 2.0 3.0 0.00 0.00 0.00 36 1016.1
20260901202729 100 50 0.0 2.0 0.00 0.00 0.00 39 1016.2
20260901202225 98 269 0.0 3.0 0.00 0.00 0.00 41 1016.4
20260901201721 99 145 2.0 3.0 0.00 0.00 0.00 38 1016.5
20260901201220 98 318 2.0 4.0 0.00 0.00 0.00 40 1016.5
20260901200720 98 152 2.0 4.0 0.00 0.00 0.00 39 1016.4
20260901200215 96 234 2.0 2.0 0.00 0.00 0.00 41 1016.4
20260901195714 97 166 1.0 4.0 0.00 0.00 0.00 40 1016.6
20260901195208 98 165 2.0 5.0 0.00 0.00 0.00 38 1016.5
20260901194704 99 229 0.0 3.0 0.00 0.00 0.00 38 1016.6
20260901194158 100 142 3.0 3.0 0.00 0.00 0.00 37 1016.6
20260901193654 99 237 3.0 3.0 0.00 0.00 0.00 39 1016.6
20260901193148 99 117 0.0 1.0 0.00 0.00 0.00 37 1016.7
20260901192642 99 254 0.0 1.0 0.00 0.00 0.00 39 1016.9
20260901192138 98 338 0.0 2.0 0.00 0.00 0.00 38 1016.8
20260901191634 98 283 2.0 2.0 0.00 0.00 0.00 39 1017.1
20260901191130 98 243 1.0 5.0 0.00 0.00 0.00 39 1017.1
20260901190626 96 156 0.0 2.0 0.00 0.00 0.00 41 1017.1
20260901190125 95 139 1.0 2.0 0.00 0.00 0.00 43 1017.1
20260901185623 97 264 2.0 3.0 0.00 0.00 0.00 43 1017.1
20260901185122 97 298 1.0 3.0 0.00 0.00 0.00 45 1017.0
20260901184618 97 246 0.0 4.0 0.00 0.00 0.00 44 1017.2
20260901184113 97 275 2.0 4.0 0.00 0.00 0.00 43 1017.3
20260901183608 97 331 3.0 3.0 0.00 0.00 0.00 42 1017.2
20260901183103 97 53 0.0 3.0 0.00 0.00 0.00 45 1017.4
20260901182559 97 272 3.0 4.0 0.00 0.00 0.00 44 1017.8
20260901182059 96 302 2.0 3.0 0.00 0.00 0.00 47 1017.5
20260901181559 96 110 1.0 2.0 0.00 0.00 0.00 45 1017.4
20260901181058 96 319 0.0 3.0 0.00 0.00 0.00 44 1017.8
20260901180557 96 265 3.0 6.0 0.00 0.00 0.00 44 1017.5
20260901180052 96 24 1.0 3.0 0.00 0.00 0.00 47 1017.8
20260901175551 97 106 2.0 2.0 0.00 0.00 0.00 45 1017.6
20260901175051 97 310 1.0 2.0 0.00 0.00 0.00 46 1017.8
20260901174547 96 300 0.0 2.0 0.00 0.00 0.00 47 1017.8
20260901174043 96 328 2.0 3.0 0.00 0.00 0.00 46 1018.1
20260901173538 96 60 0.0 2.0 0.00 0.00 0.00 45 1018.1
20260901173034 97 209 0.0 4.0 0.00 0.00 0.00 47 1017.9
20260901172529 97 304 0.0 2.0 0.00 0.00 0.00 45 1018.1
20260901172027 97 258 2.0 2.0 0.00 0.00 0.00 44 1018.3
20260901171526 96 269 0.0 3.0 0.00 0.00 0.00 47 1018.5
20260901171026 96 231 1.0 2.0 0.00 0.00 0.00 49 1018.4
20260901170525 96 289 2.0 3.0 0.00 0.00 0.00 47 1018.5
20260901170020 97 254 2.0 3.0 0.00 0.00 0.00 45 1018.6
20260901165514 96 329 0.0 2.0 0.00 0.00 0.00 48 1018.7
20260901165010 96 112 2.0 3.0 0.00 0.00 0.00 47 1018.9
20260901164505 96 193 1.0 2.0 0.00 0.00 0.00 50 1018.9
20260901164000 96 259 0.0 3.0 0.00 0.00 0.00 52 1018.6
20260901163455 96 228 0.0 2.0 0.00 0.00 0.00 50 1018.7
20260901162954 96 345 0.0 2.0 0.00 0.00 0.00 51 1018.6
20260901162450 95 301 1.0 2.0 0.00 0.00 0.00 54 1018.8
20260901161949 94 207 0.0 2.0 0.00 0.00 0.00 54 1018.9
20260901161448 94 212 0.0 3.0 0.00 0.00 0.00 54 1018.9
20260901160943 95 282 1.0 3.0 0.00 0.00 0.00 56 1018.8
20260901160439 94 282 1.0 2.0 0.00 0.00 0.00 56 1019.1
20260901155938 94 276 2.0 3.0 0.00 0.00 0.00 57 1018.9
20260901155432 94 220 2.0 2.0 0.00 0.00 0.00 56 1018.9
20260901154929 93 293 0.0 2.0 0.00 0.00 0.00 59 1019.1
20260901154428 93 326 0.0 3.0 0.00 0.00 0.00 61 1019.0
20260901153923 93 226 0.0 2.0 0.00 0.00 0.00 56 1019.0
20260901153418 94 99 2.0 2.0 0.00 0.00 0.00 54 1019.2
20260901152918 93 49 0.0 2.0 0.00 0.00 0.00 56 1019.0
20260901152412 93 89 0.0 2.0 0.00 0.00 0.00 57 1019.3
20260901151912 92 135 1.0 2.0 0.00 0.00 0.00 59 1019.1
20260901151412 92 212 1.0 2.0 0.00 0.00 0.00 58 1019.2
20260901150912 91 144 3.0 3.0 0.00 0.00 0.00 60 1019.2
20260901150410 90 89 2.0 4.0 0.00 0.00 0.00 61 1019.1
20260901145907 91 153 0.0 2.0 0.00 0.00 0.00 64 1019.1
20260901145407 90 158 2.0 3.0 0.00 0.00 0.00 62 1019.2
20260901144902 90 113 0.0 2.0 0.00 0.00 0.00 62 1019.1
20260901144357 91 110 0.0 2.0 0.00 0.00 0.00 61 1019.2
20260901143853 91 141 0.0 3.0 0.00 0.00 0.00 61 1019.1
20260901143349 91 107 0.0 2.0 0.00 0.00 0.00 61 1019.3
20260901142845 90 240 0.0 2.0 0.00 0.00 0.00 62 1019.1
20260901142344 89 42 2.0 2.0 0.00 0.00 0.00 64 1019.2
20260901141839 90 137 0.0 3.0 0.00 0.00 0.00 64 1019.3
20260901141334 91 125 0.0 2.0 0.00 0.00 0.00 63 1019.2
20260901140833 91 87 0.0 2.0 0.00 0.00 0.00 63 1019.2
20260901140331 89 87 1.0 2.0 0.00 0.00 0.00 65 1019.3
20260901135827 88 15 0.0 2.0 0.00 0.00 0.00 67 1019.2
20260901135322 87 60 1.0 3.0 0.00 0.00 0.00 69 1019.4
20260901134818 87 57 0.0 3.0 0.00 0.00 0.00 69 1019.3
20260901134313 87 93 2.0 3.0 0.00 0.00 0.00 70 1019.3
20260901133813 85 269 0.0 2.0 0.00 0.00 0.00 72 1019.4
20260901133312 85 89 2.0 3.0 0.00 0.00 0.00 73 1019.5
20260901132810 86 104 2.0 2.0 0.00 0.00 0.00 72 1019.3
20260901132307 85 68 0.0 1.0 0.00 0.00 0.00 73 1019.3
20260901131806 85 82 2.0 3.0 0.00 0.00 0.00 74 1019.3
20260901131305 86 99 1.0 2.0 0.00 0.00 0.00 73 1019.4
20260901130801 84 69 0.0 2.0 0.00 0.00 0.00 76 1019.2
20260901130300 83 111 1.0 3.0 0.00 0.00 0.00 78 1019.2
20260901125759 82 79 2.0 3.0 0.00 0.00 0.00 79 1019.3
20260901125258 83 103 3.0 3.0 0.00 0.00 0.00 79 1019.0
20260901124753 82 101 0.0 2.0 0.00 0.00 0.00 80 1018.9
20260901124248 82 76 2.0 2.0 0.00 0.00 0.00 81 1019.0
20260901123748 81 64 1.0 3.0 0.00 0.00 0.00 83 1019.1
20260901123243 80 108 2.0 2.0 0.00 0.00 0.00 85 1019.0
20260901122742 78 96 2.0 3.0 0.00 0.00 0.00 89 1019.0
20260901122237 76 71 2.0 3.0 0.00 0.00 0.00 95 1018.8
20260901121736 75 96 2.0 3.0 0.00 0.00 0.00 97 1018.7
20260901121232 74 83 2.0 3.0 0.00 0.00 0.00 97 1018.9
20260901120731 74 56 2.0 2.0 0.00 0.00 0.00 97 1018.7
20260901120226 74 42 1.0 3.0 0.00 0.00 0.00 97 1018.7
20260901115721 74 108 1.0 2.0 0.00 0.00 0.00 97 1018.4
20260901115217 73 95 0.0 2.0 0.00 0.00 0.00 97 1018.6
20260901114715 73 63 0.0 2.0 0.00 0.00 0.00 97 1018.4
20260901114215 73 64 0.0 2.0 0.00 0.00 0.00 97 1018.4
20260901113713 73 77 1.0 2.0 0.00 0.00 0.00 97 1018.3
20260901113209 73 72 1.0 2.0 0.00 0.00 0.00 97 1018.2
20260901112708 73 46 1.0 2.0 0.00 0.00 0.00 97 1018.1
20260901112203 73 60 1.0 2.0 0.00 0.00 0.00 97 1018.1
20260901111702 73 79 2.0 2.0 0.00 0.00 0.00 97 1018.0
20260901111201 73 85 2.0 2.0 0.00 0.00 0.00 97 1018.0
20260901110656 73 64 1.0 2.0 0.00 0.00 0.00 97 1017.9
20260901110151 73 89 1.0 2.0 0.00 0.00 0.00 97 1017.8
20260901105648 73 78 2.0 2.0 0.00 0.00 0.00 97 1017.5
20260901105147 73 67 2.0 2.0 0.00 0.00 0.00 97 1017.6
20260901104644 73 64 0.0 2.0 0.00 0.00 0.00 97 1017.8
20260901104139 73 77 2.0 2.0 0.00 0.00 0.00 97 1017.5
20260901103638 73 61 0.0 2.0 0.00 0.00 0.00 97 1017.9
20260901103134 73 72 0.0 2.0 0.00 0.00 0.00 97 1017.8
20260901102633 73 62 1.0 2.0 0.00 0.00 0.00 97 1017.8
20260901102128 73 77 1.0 2.0 0.00 0.00 0.00 96 1017.5
20260901101624 73 87 1.0 2.0 0.00 0.00 0.00 96 1017.6
20260901101123 74 93 2.0 2.0 0.00 0.00 0.00 96 1017.4
20260901100623 74 71 0.0 2.0 0.00 0.00 0.00 96 1017.5
20260901100118 74 67 2.0 2.0 0.00 0.00 0.00 96 1017.3
20260901095616 74 65 1.0 2.0 0.00 0.00 0.00 96 1017.5
20260901095114 74 80 1.0 2.0 0.00 0.00 0.00 96 1017.4
20260901094609 74 75 0.0 2.0 0.00 0.00 0.00 96 1017.4
20260901094108 74 89 0.0 2.0 0.00 0.00 0.00 96 1017.3
20260901093603 74 76 1.0 2.0 0.00 0.00 0.00 96 1017.3
20260901093058 74 37 0.0 2.0 0.00 0.00 0.00 96 1017.4
20260901092554 74 72 0.0 2.0 0.00 0.00 0.00 96 1017.3
20260901092050 74 81 0.0 2.0 0.00 0.00 0.00 96 1017.2
20260901091545 74 61 0.0 2.0 0.00 0.00 0.00 96 1017.2
20260901091045 74 44 0.0 2.0 0.00 0.00 0.00 96 1017.4
20260901090545 74 89 0.0 2.0 0.00 0.00 0.00 96 1017.1
20260901090041 74 89 0.0 2.0 0.00 0.00 0.00 96 1017.3
20260901085536 74 41 0.0 2.0 0.00 0.00 0.00 96 1017.3
20260901085032 75 91 1.0 2.0 0.00 0.00 0.00 96 1017.3
20260901084528 74 76 0.0 2.0 0.00 0.00 0.00 96 1017.3
20260901084025 75 78 1.0 2.0 0.00 0.00 0.00 95 1017.1
20260901083524 75 62 2.0 2.0 0.00 0.00 0.00 95 1017.1
20260901083022 75 94 1.0 2.0 0.00 0.00 0.00 95 1017.0
20260901082517 75 74 0.0 2.0 0.00 0.00 0.00 95 1017.1
20260901082013 75 66 1.0 2.0 0.00 0.00 0.00 95 1017.1
20260901081508 75 74 1.0 2.0 0.00 0.00 0.00 95 1016.9
20260901081003 75 74 2.0 2.0 0.00 0.00 0.00 95 1016.9
20260901080502 75 81 2.0 2.0 0.00 0.00 0.00 95 1017.2
20260901080001 75 79 0.0 2.0 0.00 0.00 0.00 95 1016.8
20260901075457 75 82 0.0 2.0 0.00 0.00 0.00 95 1017.1
20260901074956 75 69 1.0 2.0 0.00 0.00 0.00 95 1016.9
20260901074451 75 51 1.0 2.0 0.00 0.00 0.00 95 1016.9
20260901073946 75 84 1.0 2.0 0.00 0.00 0.00 94 1016.9
20260901073443 75 60 0.0 2.0 0.00 0.00 0.00 94 1017.0
20260901072943 75 59 0.0 2.0 0.00 0.00 0.00 94 1017.0
20260901072438 75 56 2.0 2.0 0.00 0.00 0.00 94 1017.0
20260901071933 75 53 1.0 2.0 0.00 0.00 0.00 94 1017.0
20260901071432 75 81 0.0 2.0 0.00 0.00 0.00 94 1017.0
20260901070931 76 62 2.0 2.0 0.00 0.00 0.00 94 1016.9
20260901070427 76 89 0.0 2.0 0.00 0.00 0.00 94 1017.1
20260901065925 76 71 1.0 2.0 0.00 0.00 0.00 94 1017.1
20260901065421 76 67 1.0 2.0 0.00 0.00 0.00 93 1017.2
20260901064916 76 65 1.0 1.0 0.00 0.00 0.00 94 1017.0
20260901064412 76 82 0.0 2.0 0.00 0.00 0.00 93 1017.0
20260901063909 76 59 1.0 2.0 0.00 0.00 0.00 93 1017.1
20260901063406 76 74 0.0 2.0 0.00 0.00 0.00 93 1017.1
20260901062902 76 60 0.0 2.0 0.00 0.00 0.00 93 1016.9
20260901061853 76 54 0.0 2.0 0.00 0.00 0.00 92 1017.2
20260901061348 76 70 0.0 2.0 0.00 0.00 0.00 92 1017.0
20260901060843 76 74 1.0 2.0 0.00 0.00 0.00 92 1017.2
20260901060340 76 56 2.0 3.0 0.00 0.00 0.00 92 1017.2
20260901055838 76 75 1.0 2.0 0.00 0.00 0.00 92 1017.2
20260901055335 76 95 1.0 3.0 0.00 0.00 0.00 92 1017.1
20260901054831 76 64 1.0 2.0 0.00 0.00 0.00 91 1017.1
20260901054329 76 61 0.0 2.0 0.00 0.00 0.00 91 1017.1
20260901053824 76 108 0.0 2.0 0.00 0.00 0.00 90 1017.1
20260901053319 76 88 1.0 2.0 0.00 0.00 0.00 90 1017.1
20260901052814 76 62 0.0 2.0 0.00 0.00 0.00 89 1017.1
20260901052310 77 71 2.0 2.0 0.00 0.00 0.00 89 1017.1
20260901051808 77 58 0.0 2.0 0.00 0.00 0.00 89 1017.4
20260901051304 77 34 0.0 2.0 0.00 0.00 0.00 88 1017.2
20260901050759 77 51 1.0 2.0 0.00 0.00 0.00 88 1017.1
20260901050254 77 56 2.0 2.0 0.00 0.00 0.00 88 1017.3
20260901045750 77 37 0.0 2.0 0.00 0.00 0.00 87 1017.0
20260901045244 77 79 1.0 2.0 0.00 0.00 0.00 87 1017.2
20260901044740 77 74 0.0 2.0 0.00 0.00 0.00 87 1017.1
20260901044236 77 59 0.0 2.0 0.00 0.00 0.00 87 1017.2
20260901043731 77 62 1.0 3.0 0.00 0.00 0.00 86 1017.1
20260901043226 77 84 0.0 2.0 0.00 0.00 0.00 86 1017.2
20260901042726 77 60 0.0 2.0 0.00 0.00 0.00 86 1017.1
20260901042220 77 59 1.0 2.0 0.00 0.00 0.00 85 1017.0
20260901041717 78 78 2.0 2.0 0.00 0.00 0.00 85 1017.0
20260901041216 78 53 0.0 2.0 0.00 0.00 0.00 85 1017.0
20260901040711 78 49 0.0 2.0 0.00 0.00 0.00 84 1017.0
20260901040210 78 77 0.0 2.0 0.00 0.00 0.00 84 1017.1
20260901035708 78 74 0.0 2.0 0.00 0.00 0.00 84 1017.2
20260901035208 78 60 1.0 2.0 0.00 0.00 0.00 83 1017.2
20260901034707 78 49 1.0 2.0 0.00 0.00 0.00 83 1017.0
20260901034202 78 55 1.0 2.0 0.00 0.00 0.00 82 1016.9
20260901033701 78 57 2.0 2.0 0.00 0.00 0.00 83 1017.0
20260901033155 78 62 1.0 2.0 0.00 0.00 0.00 82 1016.9
20260901032654 79 67 0.0 2.0 0.00 0.00 0.00 82 1016.9
20260901032148 79 92 0.0 2.0 0.00 0.00 0.00 81 1016.8
20260901031644 79 76 1.0 2.0 0.00 0.00 0.00 81 1016.7
20260901031140 79 45 1.0 2.0 0.00 0.00 0.00 81 1016.8
20260901030634 79 50 0.0 2.0 0.00 0.00 0.00 80 1016.9
20260901030129 79 78 0.0 2.0 0.00 0.00 0.00 80 1016.9
20260901025629 79 51 1.0 2.0 0.00 0.00 0.00 79 1016.8
20260901025125 80 60 0.0 2.0 0.00 0.00 0.00 78 1016.8
20260901024624 80 82 2.0 2.0 0.00 0.00 0.00 78 1016.8
20260901024123 80 62 1.0 2.0 0.00 0.00 0.00 78 1016.6
20260901023622 80 68 0.0 2.0 0.00 0.00 0.00 78 1016.6
20260901023117 80 49 0.0 1.0 0.00 0.00 0.00 79 1016.8
20260901022613 80 80 1.0 2.0 0.00 0.00 0.00 77 1016.6
20260901022108 80 81 1.0 2.0 0.00 0.00 0.00 77 1016.7
20260901021603 80 61 0.0 2.0 0.00 0.00 0.00 76 1016.4
20260901021058 81 84 0.0 2.0 0.00 0.00 0.00 76 1016.4
20260901020554 81 71 0.0 2.0 0.00 0.00 0.00 75 1016.3
20260901020049 81 74 0.0 2.0 0.00 0.00 0.00 75 1016.4
20260901015544 81 66 0.0 2.0 0.00 0.00 0.00 74 1016.3
20260901015044 82 19 0.0 2.0 0.00 0.00 0.00 74 1016.3
20260901014539 82 60 1.0 2.0 0.00 0.00 0.00 73 1016.3
20260901014035 82 72 0.0 2.0 0.00 0.00 0.00 72 1016.4
20260901013531 82 87 0.0 2.0 0.00 0.00 0.00 72 1016.2
20260901013027 82 89 0.0 1.0 0.00 0.00 0.00 71 1016.1
20260901012526 82 50 1.0 2.0 0.00 0.00 0.00 71 1016.0
20260901012022 83 68 1.0 2.0 0.00 0.00 0.00 71 1016.0
20260901011518 83 65 0.0 2.0 0.00 0.00 0.00 71 1016.0
20260901011015 83 301 0.0 2.0 0.00 0.00 0.00 72 1016.0
20260901010511 83 60 1.0 2.0 0.00 0.00 0.00 70 1016.1
20260901010011 83 70 1.0 2.0 0.00 0.00 0.00 70 1016.0
20260901005510 84 99 0.0 2.0 0.00 0.00 0.00 69 1015.7
20260901005006 84 56 1.0 2.0 0.00 0.00 0.00 69 1015.8
20260901004505 84 51 0.0 2.0 0.00 0.00 0.00 67 1015.7
20260901004000 85 61 0.0 2.0 0.00 0.00 0.00 67 1015.8
20260901003455 85 63 0.0 2.0 0.00 0.00 0.00 68 1015.7
20260901002954 86 74 0.0 2.0 0.00 0.00 0.00 65 1015.8
20260901002453 86 70 1.0 2.0 0.00 0.00 0.00 64 1015.8
20260901001948 87 108 0.0 2.0 0.00 0.00 0.00 63 1015.8
20260901001443 87 79 0.0 2.0 0.00 0.00 0.00 62 1015.7
20260901000938 87 75 0.0 2.0 0.00 0.00 0.00 61 1015.7
20260901000435 88 62 0.0 2.0 0.00 0.00 0.00 60 1015.8
20260831235932 88 61 1.0 1.0 0.00 0.00 0.00 59 1016.0